CW8078 Weather Reports


Display with metric or nautical units.
time (UTC)temp
F
wind
direction
speed
MPH
gust
MPH
rain 1hr
in
rain 24hr
in
rain mn
in
humidity
%
barometer
mb
20260906021803 81 5 0.0 0.0 0.00 0.00 0.00 80 1009.7
20260906021303 81 5 0.0 0.0 0.00 0.00 0.00 78 1009.6
20260906020803 81 5 0.0 0.0 0.00 0.00 0.00 77 1009.5
20260906020303 82 5 0.0 0.0 0.00 0.00 0.00 77 1009.4
20260906014803 82 5 0.0 0.0 0.00 0.00 0.00 75 1009.2
20260906014303 83 5 0.0 0.0 0.00 0.00 0.00 74 1009.2
20260906013803 83 5 0.0 0.0 0.00 0.00 0.00 73 1009.2
20260906013303 83 5 0.0 0.0 0.00 0.00 0.00 73 1009.1
20260906011804 84 5 0.0 0.0 0.00 0.00 0.00 70 1009.0
20260906011303 85 5 0.0 0.0 0.00 0.00 0.00 70 1008.9
20260906010803 85 5 0.0 0.0 0.00 0.00 0.00 69 1008.8
20260906010303 85 5 0.0 0.0 0.00 0.00 0.00 69 1008.7
20260906004303 87 5 0.0 0.0 0.00 0.00 0.00 67 1008.7
20260906003803 88 5 0.0 0.0 0.00 0.00 0.00 67 1008.6
20260906003303 88 5 0.0 0.0 0.00 0.00 0.00 63 1008.7
20260906001303 89 5 0.0 0.0 0.00 0.00 0.00 60 1008.8
20260906000803 89 5 0.0 0.0 0.00 0.00 0.00 60 1008.7
20260906000304 90 5 0.0 1.0 0.00 0.00 0.00 58 1008.8
20260905234803 91 19 0.0 1.0 0.00 0.00 0.00 55 1008.8
20260905234303 91 38 0.0 5.0 0.00 0.00 0.00 55 1008.8
20260905233803 92 13 0.0 3.0 0.00 0.00 0.00 54 1008.8
20260905231303 93 5 0.0 0.0 0.00 0.00 0.00 56 1008.6
20260905230804 94 5 0.0 0.0 0.00 0.00 0.00 55 1008.6
20260905230303 94 5 0.0 1.0 0.00 0.00 0.00 53 1008.6
20260905224303 96 5 0.0 0.0 0.00 0.00 0.00 49 1008.9
20260905223804 96 5 0.0 0.0 0.00 0.00 0.00 48 1008.9
20260905223303 96 5 0.0 0.0 0.00 0.00 0.00 47 1008.8
20260905221804 97 13 0.0 0.0 0.00 0.00 0.00 48 1008.7
20260905221304 97 13 0.0 0.0 0.00 0.00 0.00 46 1008.8
20260905220803 97 8 0.0 0.0 0.00 0.00 0.00 46 1008.8
20260905220303 97 2 0.0 0.0 0.00 0.00 0.00 47 1008.8
20260905214804 97 321 0.0 0.0 0.00 0.00 0.00 49 1008.9
20260905214303 97 350 0.0 0.0 0.00 0.00 0.00 49 1008.8
20260905213803 98 358 0.0 0.0 0.00 0.00 0.00 45 1008.7
20260905213303 98 317 0.0 0.0 0.00 0.00 0.00 41 1008.8
20260905211804 98 194 0.0 0.0 0.00 0.00 0.00 45 1008.9
20260905210803 98 329 0.0 0.0 0.00 0.00 0.00 44 1008.9
20260905210304 98 329 0.0 0.0 0.00 0.00 0.00 44 1008.9
20260905203803 99 305 0.0 0.0 0.00 0.00 0.00 43 1009.3
20260905203303 99 112 0.0 0.0 0.00 0.00 0.00 44 1009.3
20260905200804 99 36 0.0 0.0 0.00 0.00 0.00 43 1009.7
20260905194803 100 4 0.0 1.0 0.00 0.00 0.00 43 1009.9
20260905193804 100 315 0.0 0.0 0.00 0.00 0.00 43 1010.0
20260905193303 99 317 0.0 0.0 0.00 0.00 0.00 44 1010.0
20260905191804 98 31 0.0 0.0 0.00 0.00 0.00 49 1010.1
20260905190803 99 339 0.0 1.0 0.00 0.00 0.00 48 1010.2
20260905190303 99 257 0.0 0.0 0.00 0.00 0.00 45 1010.2
20260905183803 101 311 0.0 0.0 0.00 0.00 0.00 45 1010.5
20260905181803 100 294 0.0 0.0 0.00 0.00 0.00 44 1010.8
20260905181304 100 7 0.0 0.0 0.00 0.00 0.00 47 1010.8
20260905180804 100 5 0.0 0.0 0.00 0.00 0.00 46 1010.9
20260905180303 100 9 0.0 1.0 0.00 0.00 0.00 46 1010.9
20260905174803 99 11 0.0 0.0 0.00 0.00 0.00 50 1011.0
20260905174303 98 355 0.0 0.0 0.00 0.00 0.00 48 1011.1
20260905171803 96 21 0.0 0.0 0.00 0.00 0.00 51 1011.3
20260905171304 96 5 0.0 0.0 0.00 0.00 0.00 55 1011.4
20260905170804 96 21 0.0 0.0 0.00 0.00 0.00 52 1011.4
20260905170307 95 8 0.0 0.0 0.00 0.00 0.00 56 1011.4
20260905164804 94 331 0.0 0.0 0.00 0.00 0.00 59 1011.5
20260905164304 93 11 0.0 0.0 0.00 0.00 0.00 58 1011.5
20260905163804 93 11 0.0 0.0 0.00 0.00 0.00 62 1011.5
20260905163303 92 11 0.0 0.0 0.00 0.00 0.00 61 1011.5
20260905161803 91 313 0.0 0.0 0.00 0.00 0.00 63 1011.6
20260905161304 91 335 0.0 0.0 0.00 0.00 0.00 63 1011.7
20260905160804 90 335 0.0 0.0 0.00 0.00 0.00 62 1011.7
20260905160304 89 319 0.0 0.0 0.00 0.00 0.00 63 1011.7
20260905154803 88 196 0.0 0.0 0.00 0.00 0.00 68 1011.8
20260905154302 88 180 0.0 0.0 0.00 0.00 0.00 65 1011.7
20260905153302 87 179 0.0 0.0 0.00 0.00 0.00 67 1011.7
20260905151802 86 237 0.0 0.0 0.00 0.00 0.00 70 1011.7
20260905151302 86 236 0.0 0.0 0.00 0.00 0.00 70 1011.6
20260905150802 86 223 0.0 0.0 0.00 0.00 0.00 70 1011.6
20260905150302 86 222 0.0 0.0 0.00 0.00 0.00 70 1011.6
20260905144801 84 212 0.0 0.0 0.00 0.00 0.00 71 1011.5
20260905144302 84 212 0.0 0.0 0.00 0.00 0.00 73 1011.5
20260905143802 84 212 0.0 0.0 0.00 0.00 0.00 75 1011.4
20260905143302 83 210 0.0 0.0 0.00 0.00 0.00 75 1011.3
20260905141802 82 146 0.0 1.0 0.00 0.00 0.00 77 1011.2
20260905141302 81 157 0.0 0.0 0.00 0.00 0.00 78 1011.3
20260905140801 81 157 0.0 0.0 0.00 0.00 0.00 79 1011.4
20260905140301 80 157 0.0 0.0 0.00 0.00 0.00 80 1011.4
20260905134802 79 157 0.0 0.0 0.00 0.00 0.00 82 1011.4
20260905134302 79 157 0.0 0.0 0.00 0.00 0.00 83 1011.4
20260905133802 79 157 0.0 0.0 0.00 0.00 0.00 82 1011.4
20260905133302 78 157 0.0 0.0 0.00 0.00 0.00 83 1011.4
20260905131802 77 157 0.0 0.0 0.00 0.00 0.00 86 1011.2
20260905131302 77 157 0.0 0.0 0.00 0.00 0.00 86 1011.2
20260905130802 77 157 0.0 0.0 0.00 0.00 0.00 87 1011.3
20260905130302 76 157 0.0 0.0 0.00 0.00 0.00 87 1011.2
20260905124802 75 157 0.0 0.0 0.00 0.00 0.00 89 1011.1
20260905124301 75 157 0.0 0.0 0.00 0.00 0.00 89 1011.1
20260905123801 75 157 0.0 0.0 0.00 0.00 0.00 89 1011.1
20260905123302 75 157 0.0 0.0 0.00 0.00 0.00 89 1011.0
20260905121802 75 157 0.0 0.0 0.00 0.00 0.00 89 1010.8
20260905120802 74 157 0.0 0.0 0.00 0.00 0.00 90 1010.9
20260905120302 74 157 0.0 0.0 0.00 0.00 0.00 90 1010.7
20260905114802 74 157 0.0 0.0 0.00 0.00 0.00 90 1010.6
20260905114302 74 157 0.0 0.0 0.00 0.00 0.00 90 1010.6
20260905113801 74 157 0.0 0.0 0.00 0.00 0.00 90 1010.6
20260905113302 74 157 0.0 0.0 0.00 0.00 0.00 90 1010.5
20260905111802 74 157 0.0 0.0 0.00 0.00 0.00 90 1010.5
20260905111302 74 157 0.0 0.0 0.00 0.00 0.00 90 1010.5
20260905110802 74 157 0.0 0.0 0.00 0.00 0.00 90 1010.4
20260905110302 74 157 0.0 0.0 0.00 0.00 0.00 90 1010.3
20260905104802 74 157 0.0 0.0 0.00 0.00 0.00 90 1010.1
20260905104301 74 157 0.0 0.0 0.00 0.00 0.00 90 1010.1
20260905103802 74 157 0.0 0.0 0.00 0.00 0.00 90 1010.1
20260905103302 74 157 0.0 0.0 0.00 0.00 0.00 90 1010.1
20260905101802 74 157 0.0 0.0 0.00 0.00 0.00 89 1010.2
20260905101302 75 157 0.0 0.0 0.00 0.00 0.00 89 1010.3
20260905100802 75 157 0.0 0.0 0.00 0.00 0.00 89 1010.3
20260905094802 75 157 0.0 0.0 0.00 0.00 0.00 89 1010.4
20260905094302 75 157 0.0 0.0 0.00 0.00 0.00 89 1010.4
20260905093802 75 157 0.0 0.0 0.00 0.00 0.00 89 1010.3
20260905093302 75 157 0.0 0.0 0.00 0.00 0.00 89 1010.3
20260905091802 76 157 0.0 0.0 0.00 0.00 0.00 88 1010.2
20260905091302 76 157 0.0 0.0 0.00 0.00 0.00 88 1010.2
20260905090802 76 157 0.0 0.0 0.00 0.00 0.00 88 1010.2
20260905090302 76 157 0.0 0.0 0.00 0.00 0.00 88 1010.2
20260905084802 76 157 0.0 0.0 0.00 0.00 0.00 87 1010.3
20260905084302 76 157 0.0 0.0 0.00 0.00 0.00 87 1010.2
20260905083802 76 157 0.0 0.0 0.00 0.00 0.00 87 1010.2
20260905083302 76 157 0.0 0.0 0.00 0.00 0.00 87 1010.2
20260905081802 76 157 0.0 0.0 0.00 0.00 0.00 87 1010.1
20260905081302 76 157 0.0 0.0 0.00 0.00 0.00 86 1010.1
20260905080802 76 157 0.0 0.0 0.00 0.00 0.00 86 1010.1
20260905080302 76 157 0.0 0.0 0.00 0.00 0.00 86 1010.1
20260905074802 77 157 0.0 0.0 0.00 0.00 0.00 86 1010.0
20260905074303 77 157 0.0 0.0 0.00 0.00 0.00 86 1010.0
20260905073802 77 157 0.0 0.0 0.00 0.00 0.00 86 1009.9
20260905073302 77 157 0.0 0.0 0.00 0.00 0.00 86 1009.9
20260905071802 77 157 0.0 0.0 0.00 0.00 0.00 85 1010.0
20260905071302 77 157 0.0 0.0 0.00 0.00 0.00 85 1010.1
20260905070802 78 157 0.0 0.0 0.00 0.00 0.00 85 1010.1
20260905064802 78 157 0.0 0.0 0.00 0.00 0.00 84 1010.2
20260905064303 78 157 0.0 0.0 0.00 0.00 0.00 85 1010.2
20260905061802 79 157 0.0 0.0 0.00 0.00 0.00 83 1010.2
20260905061302 79 157 0.0 0.0 0.00 0.00 0.00 83 1010.2
20260905060802 79 157 0.0 0.0 0.00 0.00 0.00 83 1010.2
20260905060303 79 157 0.0 0.0 0.00 0.00 0.00 82 1010.2
20260905054802 79 157 0.0 0.0 0.00 0.00 0.00 82 1010.3
20260905054302 79 157 0.0 0.0 0.00 0.00 0.00 82 1010.3
20260905053802 79 157 0.0 0.0 0.00 0.00 0.00 81 1010.3
20260905053302 80 157 0.0 0.0 0.00 0.00 0.00 81 1010.3
20260905051802 80 157 0.0 0.0 0.00 0.00 0.00 81 1010.2
20260905051302 80 157 0.0 0.0 0.00 0.00 0.00 81 1010.3
20260905050802 80 157 0.0 0.0 0.00 0.00 0.00 80 1010.3
20260905050303 80 157 0.0 0.0 0.00 0.00 0.00 80 1010.3
20260905044802 81 157 0.0 0.0 0.00 0.00 0.00 79 1010.3
20260905044302 81 157 0.0 0.0 0.00 0.00 0.00 79 1010.2
20260905043802 81 157 0.0 0.0 0.00 0.00 0.00 78 1010.3
20260905043302 81 157 0.0 0.0 0.00 0.00 0.00 78 1010.2
20260905041802 82 157 0.0 0.0 0.00 0.00 0.00 77 1010.2
20260905040302 82 157 0.0 0.0 0.00 0.00 0.00 75 1010.3
20260905034802 82 157 0.0 0.0 0.00 0.00 0.00 75 1010.3
20260905034302 82 157 0.0 0.0 0.00 0.00 0.00 75 1010.3
20260905033302 82 157 0.0 0.0 0.00 0.00 0.00 76 1010.4
20260905031803 82 150 0.0 0.0 0.00 0.00 0.00 78 1010.5
20260905031302 82 149 0.0 0.0 0.00 0.00 0.00 79 1010.5
20260905030803 82 149 0.0 0.0 0.00 0.00 0.00 78 1010.5
20260905030302 82 149 0.0 0.0 0.00 0.00 0.00 77 1010.5
20260905024802 83 149 0.0 0.0 0.00 0.00 0.00 77 1010.3
20260905024302 83 149 0.0 0.0 0.00 0.00 0.00 77 1010.3
20260905023802 83 149 0.0 0.0 0.00 0.00 0.00 75 1010.3